Weather History for Covington, KY

Change the Weather History Date:

Wednesday, December 25, 2013

  Actual Average Record
Temperature  
Mean Temperature 27 °F 32 °F  
Max Temperature 35 °F 39 °F 66 °F (1893)
Min Temperature 18 °F 25 °F -12 °F (1983)
Degree Days  
Heating Degree Days 38 33  
Month to date heating degree days 733 757  
Since 1 July heating degree days 1769 1717  
Cooling Degree Days 0 0  
Month to date cooling degree days 0 0  
Year to date cooling degree days 1150 1121  
Moisture  
Dew Point 15 °F    
Average Humidity 57    
Maximum Humidity 73    
Minimum Humidity 41    
Precipitation  
Precipitation T in 0.11 in 1.12 in (1957)
Month to date precipitation 4.64 2.72  
Year to date precipitation 49.21 41.87  
Snow  
Snow T in 0.20 in 3.70 in (1909)
Month to date snowfall 10.3 3.6  
Since 1 July snowfall 12.7 4.4  
Snow Depth T in    
Sea Level Pressure  
Sea Level Pressure 30.36 in    
Wind  
Wind Speed 9 mph (South)    
Max Wind Speed 16 mph    
Max Gust Speed 20 mph    
Visibility 10 miles    
Events Snow    
T = Trace of Precipitation, MM = Missing Value Source: NWS Daily Summary

Daily Weather History Graph

Daily Weather History Graph

Search for Another Location

Airport:

Trip Planner

Search our weather history database for the weather conditions in past years. The results will help you decide how hot, cold, wet, or windy it might be!

Date:

Astronomy

Dec. 25, 2013 Rise Set
Actual Time 7:55 AM EST 5:21 PM EST
Civil Twilight 7:25 AM EST 5:52 PM EST
Nautical Twilight 6:52 AM EST 6:25 PM EST
Astronomical Twilight 6:19 AM EST 6:58 PM EST
Moon 12:25 AM EST (12/25) 12:22 PM EST (12/25)
Length of Visible Light 10h 26m
Length of Day
9h 26m
Waning Gibbous, 49% of the Moon is Illuminated
Dec 25
Waning Gibbous
Jan 1
New
Jan 7
First Quarter
Jan 15
Full
Jan 24
Last Quarter

Hourly Weather History & Observations

Time (EST) Temp. Windchill Dew Point Humidity Pressure Visibility Wind Dir Wind Speed Gust Speed Precip Events Conditions
12:52 AM 19.0 °F 8.2 °F 10.9 °F 71% 30.48 in 10.0 mi ESE 9.2 mph - N/A   Mostly Cloudy
1:52 AM 19.0 °F 7.5 °F 12.9 °F 77% 30.45 in 10.0 mi SE 10.4 mph - N/A   Overcast
2:52 AM 19.9 °F 10.1 °F 12.0 °F 71% 30.48 in 10.0 mi SE 8.1 mph - N/A   Overcast
3:52 AM 19.9 °F 11.1 °F 12.9 °F 74% 30.48 in 10.0 mi SE 6.9 mph - N/A   Mostly Cloudy
4:52 AM 19.9 °F 9.3 °F 12.0 °F 71% 30.47 in 10.0 mi SSE 9.2 mph - N/A   Overcast
5:52 AM 19.0 °F 8.2 °F 12.0 °F 74% 30.47 in 10.0 mi SSE 9.2 mph - N/A   Mostly Cloudy
6:52 AM 19.0 °F 6.1 °F 12.0 °F 74% 30.45 in 10.0 mi SSE 12.7 mph - N/A   Overcast
7:52 AM 19.0 °F 7.5 °F 10.0 °F 68% 30.45 in 10.0 mi SSE 10.4 mph - N/A   Mostly Cloudy
8:52 AM 19.9 °F 8.6 °F 10.9 °F 68% 30.44 in 10.0 mi SSE 10.4 mph - N/A   Mostly Cloudy
9:52 AM 21.0 °F 9.9 °F 12.9 °F 71% 30.43 in 10.0 mi South 10.4 mph - N/A   Mostly Cloudy
10:52 AM 25.0 °F 14.8 °F 14.0 °F 63% 30.42 in 10.0 mi South 10.4 mph - N/A   Mostly Cloudy
11:52 AM 28.9 °F 18.2 °F 15.1 °F 56% 30.37 in 10.0 mi South 13.8 mph - N/A   Mostly Cloudy
12:52 PM 32.0 °F 22.1 °F 15.1 °F 50% 30.32 in 10.0 mi South 13.8 mph 18.4 mph N/A   Mostly Cloudy
1:52 PM 34.0 °F 27.2 °F 12.9 °F 42% 30.29 in 10.0 mi SW 8.1 mph - N/A   Overcast
2:52 PM 34.0 °F 26.0 °F 14.0 °F 44% 30.27 in 10.0 mi SSW 10.4 mph - N/A   Overcast
3:52 PM 34.0 °F 28.8 °F 15.1 °F 46% 30.27 in 10.0 mi SW 5.8 mph - N/A   Overcast
4:52 PM 34.0 °F 28.8 °F 16.0 °F 48% 30.27 in 10.0 mi SSW 5.8 mph - N/A   Overcast
5:52 PM 34.0 °F 31.0 °F 17.1 °F 50% 30.26 in 10.0 mi SSW 3.5 mph - N/A   Overcast
6:52 PM 34.0 °F 28.8 °F 18.0 °F 52% 30.25 in 10.0 mi SSW 5.8 mph - 0.00 in Snow Light Snow
7:52 PM 34.0 °F 28.8 °F 18.0 °F 52% 30.25 in 10.0 mi SSW 5.8 mph - 0.00 in   Overcast
8:52 PM 34.0 °F 29.8 °F 18.0 °F 52% 30.24 in 10.0 mi SSW 4.6 mph - N/A   Overcast
9:52 PM 34.0 °F 28.8 °F 19.0 °F 54% 30.24 in 10.0 mi WSW 5.8 mph - N/A   Overcast
10:52 PM 34.0 °F 27.2 °F 19.9 °F 56% 30.22 in 10.0 mi SW 8.1 mph - N/A   Overcast
11:52 PM 34.0 °F 28.0 °F 19.9 °F 56% 30.21 in 10.0 mi SW 6.9 mph - N/A   Overcast